Theta_e
340 340 340 340 340 340 341 340 340 341 341 340 339 337 336 335 334 334 334 335 333 328 322 324 330 332 333 335 334 334 334 334 333 333 333 333 333 333 333 334 334 333 333 332 331 332 332 332 332 332 332 332 332 331 330 329 328 327 326 324 324 323 323 321 320 320 320 321 322 323 324 326 328 328 328 328 326 324 322 322 322 320 319 316 313
340 340 340 339 339 340 340 340 339 341 341 340 338 336 336 336 335 335 336 336 335 328 322 327 332 333 334 335 334 334 334 333 334 334 334 334 334 333 334 335 334 333 332 332 332 332 332 332 332 332 332 332 331 330 329 328 327 326 324 323 322 322 320 318 317 316 316 316 317 322 325 325 326 327 326 325 321 320 320 320 318 314 310 306 303
341 341 340 338 338 339 340 340 339 340 341 340 339 337 337 337 336 336 337 337 333 327 327 332 334 334 334 334 334 334 334 334 334 334 334 334 334 335 335 335 334 333 333 333 333 333 332 332 332 332 332 331 330 329 328 328 326 325 323 322 321 319 318 316 315 314 314 314 314 322 324 324 327 324 319 318 316 317 318 314 308 303 301 300 299
341 341 339 338 337 338 340 339 339 340 340 340 339 339 338 338 338 337 338 336 330 327 331 335 334 334 334 333 334 334 334 334 334 334 334 334 334 335 335 334 334 334 333 333 333 332 332 332 332 331 331 330 329 328 327 327 325 323 321 320 318 317 315 314 314 313 313 313 313 317 317 321 325 316 313 317 313 312 311 303 300 299 299 299 298
341 340 338 338 338 338 338 339 340 341 341 340 340 339 338 338 339 338 337 334 329 329 333 334 334 334 333 332 333 334 334 334 333 333 333 334 334 334 334 334 334 333 333 332 331 331 331 331 331 330 330 329 328 327 326 324 322 320 318 317 315 314 314 313 312 311 311 311 310 313 316 320 317 307 312 317 308 305 304 298 298 299 298 299 298
340 340 338 338 337 337 337 338 339 340 340 340 339 339 339 339 339 338 336 333 331 332 333 334 333 332 332 332 333 334 334 333 333 332 333 334 334 333 333 333 333 332 332 332 331 331 331 331 330 330 329 328 327 326 324 321 318 317 315 315 314 313 312 311 310 310 309 308 305 306 309 311 308 302 307 311 306 302 299 298 299 298 298 298 298
340 340 339 338 337 337 336 337 338 338 338 338 338 339 340 340 339 338 336 334 333 333 333 333 332 331 332 333 333 333 333 333 333 333 333 334 333 333 333 333 332 332 332 331 331 330 330 330 330 330 328 326 326 324 321 318 316 315 314 313 312 311 310 309 308 307 305 304 302 302 301 301 301 300 300 304 305 303 300 298 298 298 298 298 297
340 340 340 340 339 337 337 337 336 336 336 337 337 338 340 340 339 339 337 335 334 334 334 333 332 332 333 333 333 334 333 333 333 333 333 333 333 332 332 332 332 331 331 330 330 330 330 330 330 329 327 325 323 320 317 316 315 314 312 311 310 309 308 305 304 302 301 301 300 300 300 299 299 299 299 299 300 303 302 298 297 298 298 297 297
340 340 340 341 340 339 338 336 335 334 336 336 337 338 340 340 340 339 337 336 336 335 334 333 333 334 334 334 333 334 334 334 334 334 334 333 332 332 331 331 331 330 330 329 329 329 329 330 328 327 324 322 319 316 315 314 313 312 310 309 307 305 303 302 301 300 300 300 300 299 299 299 298 298 299 299 298 300 300 297 297 299 298 297 297
339 340 340 340 340 339 338 336 333 333 335 336 336 338 339 340 339 338 337 336 335 334 334 333 334 334 334 334 334 334 334 334 334 334 334 332 331 331 331 331 330 329 329 328 329 329 329 328 326 323 320 318 316 314 314 312 311 309 308 306 304 301 300 300 300 300 299 299 299 299 299 298 299 299 299 299 298 298 298 297 297 298 298 298 297
339 339 339 340 339 338 337 335 334 334 335 335 336 338 339 338 338 337 336 334 333 333 333 334 334 334 334 334 334 334 333 333 334 334 333 332 331 331 331 330 329 328 328 328 328 328 327 325 322 319 316 315 314 313 311 310 308 307 305 302 300 300 299 299 299 299 299 299 299 299 299 299 299 299 298 298 298 298 298 298 297 297 298 297 297
338 339 339 338 338 337 336 335 334 334 335 334 337 339 338 337 337 335 334 334 334 333 333 333 333 333 334 334 334 334 333 333 333 333 333 332 331 331 330 329 328 328 327 327 328 326 324 321 318 316 314 313 312 310 309 307 306 303 301 300 299 299 299 299 299 299 299 299 299 299 299 298 298 298 298 297 297 297 297 297 297 297 297 297 297
338 338 338 338 338 337 336 335 334 334 334 335 337 339 338 337 336 335 333 334 334 333 332 332 332 332 334 334 333 332 332 333 333 333 333 332 331 331 329 328 328 328 327 327 326 324 320 317 315 313 312 311 309 308 307 305 302 300 299 299 299 299 298 298 299 299 299 298 298 298 298 298 298 297 297 297 297 297 297 297 297 297 297 297 297
337 337 338 337 337 337 336 335 334 334 334 335 336 338 338 338 336 334 333 333 334 333 331 331 332 332 333 334 333 332 332 333 333 333 332 331 330 329 329 328 328 328 327 326 324 321 317 314 313 312 310 309 307 306 304 301 300 299 299 299 299 298 298 298 298 298 298 298 298 298 298 298 297 297 297 297 297 297 297 297 297 297 297 297 297
336 336 337 337 337 336 335 335 334 334 334 334 336 337 337 337 336 334 333 332 333 333 333 332 332 332 333 334 333 332 333 333 333 332 331 331 330 329 329 328 328 327 326 325 323 318 314 313 311 310 308 307 305 303 301 299 299 298 298 298 298 298 298 298 298 298 298 298 298 297 297 297 297 297 297 297 297 296 296 297 297 297 297 297 298
336 336 336 336 336 335 335 335 335 334 334 334 334 336 336 335 335 334 333 333 334 334 333 332 332 332 333 333 332 333 333 332 332 332 331 331 330 329 329 328 327 326 325 324 320 315 312 311 309 307 306 304 302 300 299 298 298 298 298 298 298 298 298 298 297 297 297 297 297 297 297 297 297 296 296 296 296 296 296 296 296 296 297 298 298
336 335 335 335 335 335 335 335 335 335 334 333 334 334 334 334 334 334 334 334 334 333 333 332 332 332 332 331 330 332 333 332 332 331 331 331 330 329 328 328 327 325 324 322 317 312 310 309 307 305 304 302 300 299 298 298 298 298 298 298 298 297 297 297 297 297 297 297 297 297 297 297 296 296 296 296 296 296 296 296 296 295 295 296 297
336 335 335 334 335 335 335 335 335 334 334 333 333 333 334 334 334 334 335 334 333 333 332 332 332 332 331 330 330 331 332 332 331 331 331 331 330 328 327 327 326 324 323 319 313 310 308 306 305 303 302 300 299 298 298 297 297 298 297 297 297 297 297 297 297 297 297 297 297 296 296 296 296 296 296 296 296 296 296 295 295 295 294 295 295
336 336 335 334 334 335 335 334 335 334 334 334 333 333 333 334 333 334 334 333 333 333 332 332 333 332 331 331 330 330 331 332 331 330 330 330 329 328 327 326 325 323 320 316 310 308 306 304 303 301 300 299 298 298 298 297 297 297 297 297 297 297 297 297 297 297 296 296 296 296 296 296 296 296 296 296 296 296 295 295 295 294 294 294 294
336 337 335 334 334 334 334 335 335 334 334 334 334 333 333 334 334 334 333 333 333 333 332 332 332 331 331 332 332 331 331 331 331 331 330 329 327 326 326 325 323 321 318 312 308 305 304 302 301 300 299 298 298 298 297 297 297 297 297 297 296 296 297 297 297 296 296 296 296 296 296 296 296 296 296 296 295 295 295 295 294 294 294 293 293
336 337 336 334 334 335 335 335 334 334 334 334 334 334 334 334 334 333 333 333 333 333 332 331 331 331 331 332 331 331 331 329 330 330 328 327 326 325 325 323 322 320 315 309 305 303 302 301 300 299 298 298 297 297 297 297 297 297 297 296 296 296 297 297 296 296 296 296 296 296 296 296 295 296 295 295 295 295 295 294 294 294 293 293 293
336 337 336 335 335 335 335 335 335 334 334 334 335 334 334 334 333 333 333 333 333 332 331 330 330 331 331 331 329 330 330 329 329 328 327 326 325 324 323 322 320 317 312 306 303 302 300 300 299 298 298 298 297 297 297 297 296 296 296 296 296 296 296 296 296 296 296 296 296 296 295 295 295 295 295 295 295 295 294 294 294 294 293 293 293
336 337 336 334 334 334 334 335 334 334 334 335 335 334 334 333 333 333 333 332 332 331 330 330 331 332 332 330 328 329 330 329 328 327 326 326 324 322 322 320 318 315 309 304 301 300 299 299 298 298 298 297 297 297 297 297 296 296 296 296 296 296 296 296 296 296 295 295 295 295 295 295 295 295 295 295 294 294 294 294 294 294 294 293 293
336 336 336 335 334 334 334 334 333 333 334 334 334 333 333 332 331 331 332 331 330 330 330 331 332 331 330 329 328 329 330 329 328 327 325 324 322 321 320 319 316 312 307 302 300 299 299 299 298 298 297 297 297 297 297 296 296 296 296 296 296 296 296 296 296 295 295 295 295 295 295 295 295 295 294 294 294 294 294 294 294 294 293 293 293
336 335 335 334 334 335 334 334 334 334 333 333 333 333 331 330 331 332 332 330 329 330 331 330 329 329 328 328 328 329 328 327 326 325 323 322 321 319 318 317 314 310 305 300 299 299 299 298 298 297 297 297 297 297 297 296 296 296 296 296 296 295 295 295 295 295 295 295 295 295 295 295 295 294 294 294 294 294 294 294 293 293 293 293 293
335 335 335 334 334 335 335 335 334 333 333 332 333 332 330 330 331 331 330 328 328 329 330 328 328 328 329 328 328 327 326 325 324 323 322 321 319 318 316 314 311 307 303 299 298 298 298 298 298 298 297 297 297 297 296 296 296 296 296 295 295 295 295 295 295 295 295 295 295 295 295 295 295 294 294 294 294 293 293 293 293 293 293 293 293
335 335 335 334 334 334 335 335 334 333 333 333 332 331 331 331 331 329 328 327 328 329 329 328 329 329 329 328 327 325 324 323 322 321 321 319 318 316 314 313 309 304 300 297 296 297 297 298 298 297 297 297 297 297 296 296 296 296 295 295 295 295 295 295 295 295 295 295 295 295 295 295 294 294 294 294 293 293 293 293 293 293 293 293 293
334 334 334 334 334 334 334 334 333 333 333 333 332 331 331 331 330 328 327 328 329 330 329 329 329 328 327 326 325 324 322 321 320 320 319 317 316 314 313 311 306 300 297 296 296 296 297 298 298 297 297 297 297 296 296 296 295 295 295 295 295 295 295 295 295 295 294 295 295 294 294 294 294 294 294 293 293 293 293 293 293 293 293 293 292
334 333 334 334 333 333 333 333 333 332 332 333 332 330 330 330 329 327 327 329 330 329 329 328 327 326 325 323 322 321 320 319 318 317 316 315 314 313 312 309 303 298 296 296 296 296 297 297 297 297 297 297 297 296 296 295 295 295 295 295 295 295 295 294 294 294 294 294 294 294 294 294 294 294 293 293 293 293 293 293 293 293 293 292 292
333 333 333 333 333 333 333 332 332 331 331 332 331 329 329 329 328 326 327 329 329 328 327 326 324 323 322 321 320 318 317 317 316 315 314 313 313 312 310 306 301 297 296 295 296 296 296 296 296 297 297 297 296 296 295 295 295 295 295 295 294 294 294 294 294 294 294 294 294 294 294 294 294 293 293 293 293 293 292 292 292 292 292 292 292
333 333 333 333 333 333 332 332 332 331 331 330 328 328 330 330 328 326 327 328 328 327 326 324 322 321 319 318 317 316 315 315 314 314 313 312 312 310 307 302 299 296 295 295 295 296 296 296 296 296 296 296 296 295 295 295 295 295 295 294 294 294 294 294 294 294 294 294 294 294 294 294 293 293 293 293 293 292 292 292 292 292 292 292 292
333 333 333 332 332 332 332 331 331 331 331 329 327 329 330 329 328 326 327 328 327 326 324 322 320 319 318 316 315 315 314 313 313 313 312 311 310 307 303 299 297 295 295 295 295 295 296 296 296 297 296 295 295 295 295 295 295 295 295 294 294 294 294 294 294 294 294 294 294 294 294 294 293 293 293 293 292 292 292 292 292 292 292 292 291
333 333 332 331 332 331 331 331 331 331 331 328 327 329 330 328 328 327 327 327 327 325 323 321 319 318 317 315 314 313 313 312 312 311 311 310 308 304 300 297 296 295 295 295 295 295 295 295 296 296 296 295 295 295 295 295 295 295 295 294 294 294 294 294 294 294 294 294 294 294 293 293 293 293 293 292 292 292 292 292 292 292 292 292 291
332 332 331 331 331 331 331 331 331 331 330 328 327 328 329 328 327 326 327 327 326 325 323 321 319 317 316 314 313 313 312 312 312 311 310 309 306 303 300 298 295 295 295 295 295 295 295 295 296 296 296 295 295 295 295 295 295 295 294 294 294 294 293 293 294 294 294 294 293 294 293 293 293 293 292 292 292 292 292 292 292 292 292 292 292
332 332 331 330 330 331 331 331 331 331 330 328 327 329 329 328 326 326 326 327 326 325 323 322 319 317 315 314 313 313 312 312 311 310 309 308 305 302 300 298 296 296 297 296 295 295 295 295 295 295 295 295 294 295 295 295 295 295 294 294 294 294 293 293 294 293 293 293 293 294 293 293 293 293 293 293 293 293 293 293 292 292 292 292 292
332 332 331 330 330 330 330 330 330 330 330 329 328 328 329 328 327 326 326 326 326 325 323 323 321 318 315 314 313 313 312 311 310 309 308 306 304 302 301 300 298 298 297 297 295 294 295 295 294 295 295 295 294 294 295 295 295 294 294 294 294 293 293 293 293 293 293 293 293 293 293 293 293 293 293 293 293 293 293 293 293 293 293 293 292
332 332 331 331 330 330 330 329 329 328 328 329 329 329 329 328 327 326 326 326 326 324 323 323 322 318 315 314 313 313 312 311 310 309 307 305 304 303 301 299 298 297 297 296 295 294 294 294 294 295 295 294 294 294 294 294 294 294 294 294 293 293 293 293 293 293 293 293 294 293 293 293 293 293 293 293 293 294 294 294 294 294 294 294 294
331 332 331 331 330 330 330 329 328 328 328 329 330 329 328 328 327 326 326 326 325 323 323 323 321 319 316 314 314 313 312 311 310 309 308 306 303 301 299 298 297 296 296 295 294 294 294 294 294 294 294 294 294 294 294 294 294 294 294 294 293 293 293 293 293 293 293 293 293 293 293 293 293 293 293 294 294 294 294 294 294 294 294 294 294
331 331 331 331 330 329 329 329 328 328 328 328 329 328 327 327 327 327 326 325 324 324 323 323 321 318 316 314 314 313 312 311 311 309 307 305 302 299 298 298 297 296 294 294 294 294 294 294 294 294 294 294 294 294 294 294 294 293 293 293 293 293 293 293 293 293 293 293 293 293 292 293 293 293 293 294 294 294 294 294 294 294 294 294 294
331 331 330 330 330 329 329 329 329 328 328 328 328 328 327 328 328 327 327 326 325 324 323 322 320 317 316 314 313 312 312 311 309 308 306 303 301 299 299 300 298 295 294 294 294 294 294 294 294 294 293 294 294 293 294 294 293 293 293 293 293 293 293 293 293 293 293 293 293 292 292 293 293 293 293 294 294 294 294 294 294 294 294 294 294
331 330 330 330 330 329 329 329 329 329 328 328 328 328 328 328 327 327 327 326 325 324 323 321 318 317 316 314 313 312 311 310 308 307 304 302 301 300 300 300 299 296 294 294 294 294 294 294 294 294 294 294 294 294 293 293 293 294 294 293 293 293 293 293 293 293 293 293 292 292 292 293 293 293 294 294 294 294 294 294 294 294 295 295 295
330 330 330 330 330 330 330 329 329 329 329 328 328 328 328 328 327 327 327 326 325 324 322 320 318 317 315 314 312 311 310 310 309 306 303 301 301 301 300 300 300 297 294 294 294 294 294 294 294 294 294 294 294 294 293 293 294 294 294 294 293 293 293 293 293 293 293 293 292 292 292 293 293 293 294 294 295 294 294 294 294 294 294 295 295
331 330 330 330 330 330 330 329 329 329 329 329 328 328 328 328 327 326 326 326 325 323 321 319 318 317 315 313 312 311 310 310 308 306 303 301 300 300 301 301 301 299 296 294 294 294 294 294 294 294 294 294 294 293 293 293 294 294 294 294 294 294 294 294 293 293 293 293 293 293 293 293 293 294 294 295 295 294 294 294 294 294 294 294 295
331 331 330 330 330 330 329 329 329 329 329 329 328 328 328 328 327 326 325 325 323 321 320 318 317 316 314 313 312 310 310 309 308 305 303 302 300 301 302 303 301 299 297 295 294 294 294 294 294 294 294 294 293 293 293 293 294 294 294 294 294 294 294 294 293 293 293 293 293 293 293 294 294 294 294 294 294 294 294 294 294 294 294 294 295
331 331 330 330 330 330 329 329 329 329 329 329 328 328 328 327 327 326 325 324 322 320 319 318 317 316 314 313 311 310 310 309 307 305 303 303 302 302 303 303 302 300 299 296 294 294 294 294 294 294 294 294 293 293 293 293 294 294 294 294 294 294 294 294 294 293 293 293 293 293 293 294 294 294 294 294 294 294 294 294 294 294 294 294 295
331 331 330 330 330 329 329 329 329 328 328 328 328 328 327 327 327 326 325 323 321 320 319 318 316 315 314 312 311 310 309 308 307 305 303 303 303 303 302 302 302 300 299 297 295 294 294 294 294 294 293 293 293 293 293 293 294 294 294 294 294 294 294 294 294 294 294 293 293 293 293 294 294 294 294 294 294 294 294 294 294 294 294 294 294
331 331 330 330 329 329 329 329 329 328 328 327 327 327 327 326 326 325 324 323 320 319 318 317 316 315 313 312 311 310 309 308 306 304 304 304 304 304 302 301 300 300 299 298 295 294 294 294 294 293 293 293 293 293 293 293 294 294 294 294 294 294 294 294 294 294 294 294 294 294 294 294 294 294 294 294 294 294 294 294 294 294 294 294 294
331 331 330 330 329 328 328 329 329 328 328 327 327 327 327 326 325 324 323 322 320 318 318 317 316 315 313 312 311 310 309 307 305 304 304 304 305 304 303 302 300 298 297 296 295 294 294 294 294 293 293 293 293 293 293 294 294 294 294 294 294 294 294 294 294 294 294 294 294 294 294 294 294 294 294 294 293 293 293 293 293 293 293 293 293
331 331 330 330 329 328 328 328 328 328 327 327 327 327 326 326 325 323 322 321 319 318 317 316 316 315 314 312 311 309 309 307 305 303 303 304 304 304 303 302 300 298 297 296 294 294 294 294 294 293 293 293 293 293 293 293 293 294 294 294 294 294 294 294 294 294 294 294 294 294 294 294 293 293 293 293 293 293 293 293 293 293 293 293 293
330 330 330 330 329 328 328 328 327 327 326 326 326 326 326 325 324 323 321 320 319 318 317 316 316 315 314 312 310 309 309 307 304 302 303 304 304 303 303 302 300 297 297 296 294 294 294 294 293 293 293 293 293 292 293 293 293 294 294 294 294 294 294 294 294 294 294 294 294 294 294 294 294 294 294 294 294 294 294 294 293 293 293 293 292
329 329 329 329 328 328 328 327 327 326 325 325 325 324 324 324 324 323 322 320 319 319 317 316 315 315 314 313 310 310 309 306 303 301 302 302 303 303 303 301 299 297 296 295 294 294 294 293 293 293 292 293 293 293 292 293 293 294 294 294 294 294 294 294 294 294 294 294 294 294 294 294 294 294 294 294 295 295 295 294 294 294 293 293 293
Wind_Speed
18 23 28 28 28 26 24 26 25 24 25 25 24 26 26 25 24 22 20 19 19 20 21 22 23 21 20 19 17 14 13 13 12 11 10 9 7 6 5 5 4 3 3 2 2 1 1 1 2 3 3 4 5 6 6 7 7 7 8 9 9 10 10 10 9 8 5 4 4 5 5 5 5 5 5 6 9 11 12 12 13 14 15 17 18
23 25 27 26 28 29 26 25 26 25 25 25 24 25 25 24 23 22 20 20 20 21 22 22 22 20 18 17 15 14 14 14 14 12 10 9 8 8 8 6 5 4 3 3 2 1 1 1 1 2 3 4 6 7 7 7 7 8 9 10 10 10 11 11 11 9 6 5 3 2 3 4 5 6 6 9 11 12 12 13 14 15 16 17 17
28 28 26 23 25 29 28 26 26 25 24 24 24 24 24 23 23 22 20 20 20 21 21 21 20 17 15 15 16 16 15 14 14 13 11 10 8 8 7 6 5 4 4 3 3 2 1 1 1 2 4 5 7 8 8 8 9 9 10 10 10 11 12 11 10 9 8 7 4 2 4 2 3 3 8 10 10 10 11 12 14 15 15 15 15
31 29 24 22 22 24 26 26 26 26 25 24 23 23 24 23 22 21 20 19 20 20 22 21 18 17 16 15 16 16 14 14 14 13 11 9 7 7 6 5 5 5 4 4 3 2 2 2 1 3 5 7 8 8 8 9 9 10 9 9 9 10 9 9 8 8 8 7 5 1 1 4 3 3 7 7 9 10 9 12 14 15 15 15 16
32 29 23 22 21 20 22 26 27 26 26 25 22 22 22 20 19 21 20 20 20 21 23 21 18 18 17 16 17 17 14 14 13 11 10 9 7 6 6 7 6 5 4 4 3 3 3 2 2 4 6 8 8 8 8 9 9 9 8 8 7 7 7 7 8 8 8 8 7 5 4 4 2 5 5 3 8 9 10 15 16 16 16 17 18
30 28 24 22 21 18 18 22 26 26 26 25 22 21 20 17 19 22 22 21 22 23 23 21 19 18 17 16 17 17 15 13 11 9 10 9 6 6 7 7 6 4 4 4 3 3 2 2 5 6 8 8 8 7 7 8 8 7 7 7 6 7 7 8 8 8 9 8 8 8 7 5 5 8 7 4 5 7 11 16 17 18 18 18 18
29 29 26 24 23 20 17 18 23 25 26 25 22 22 21 18 19 21 22 23 23 22 22 20 18 17 17 16 16 15 14 12 10 9 10 9 7 7 7 7 5 4 3 2 2 2 3 5 7 8 9 8 6 5 6 6 7 6 7 7 7 8 8 8 8 9 9 9 10 11 10 10 10 11 9 7 6 6 12 18 19 19 19 18 18
28 30 30 29 27 24 20 18 21 24 25 25 23 23 22 20 20 20 22 23 22 21 20 19 17 17 17 15 14 14 11 10 11 10 11 10 8 8 8 6 6 4 2 1 3 5 6 8 9 9 8 6 4 5 5 6 6 7 7 7 8 8 8 8 8 9 9 10 12 13 12 13 12 12 12 13 13 9 12 21 22 21 22 21 20
28 30 30 30 28 26 22 20 22 24 24 25 23 22 22 21 21 20 20 20 19 19 19 17 17 17 16 15 14 14 12 11 12 12 12 11 10 9 7 6 5 3 1 3 5 7 9 11 11 9 6 3 4 5 6 6 7 7 7 7 8 7 7 8 8 9 10 12 14 14 13 13 12 14 16 17 18 15 15 22 24 23 23 23 22
27 29 29 29 27 24 21 20 23 24 23 22 22 22 22 22 21 19 19 19 18 19 18 18 18 17 14 14 15 15 13 13 14 14 13 12 10 8 8 6 4 2 2 5 6 9 12 12 10 5 2 4 5 6 6 6 7 7 7 7 7 7 9 10 10 11 13 13 14 13 12 12 12 16 18 19 20 19 19 21 22 22 21 21 22
23 26 27 26 25 23 20 21 23 22 20 20 21 22 22 21 20 20 20 18 17 19 19 18 17 15 14 13 13 12 11 12 14 14 13 11 9 9 8 6 3 2 3 6 8 11 12 9 5 1 4 5 5 6 6 7 7 7 7 7 7 9 11 11 12 13 13 13 13 13 14 15 16 18 20 21 21 21 21 21 21 22 21 21 21
21 23 25 25 23 22 21 23 23 22 20 20 22 23 21 20 20 20 18 16 16 18 18 16 15 14 13 12 10 10 10 12 14 13 11 10 9 9 8 5 3 3 5 7 10 11 9 4 1 3 5 5 5 6 6 6 7 7 7 8 9 11 12 12 12 13 13 14 15 16 17 18 20 21 21 22 21 21 22 22 22 22 22 21 21
23 22 25 27 25 23 23 24 24 23 22 22 23 22 22 22 20 17 15 15 17 17 14 12 13 13 13 13 12 11 12 14 14 12 9 8 9 9 7 4 3 4 6 9 10 8 4 1 4 5 5 5 6 6 6 6 7 7 8 9 10 12 12 12 12 14 15 17 18 19 20 21 22 22 21 22 22 22 22 23 23 22 22 23 23
28 25 25 27 27 25 24 25 25 25 24 22 22 23 23 23 20 16 14 15 16 16 12 10 12 13 14 15 14 13 14 15 14 10 7 8 9 7 6 4 3 4 7 9 9 5 1 3 5 5 5 5 6 5 6 7 8 8 8 9 11 12 12 12 14 16 17 19 20 20 20 21 21 21 21 22 22 22 22 23 24 24 24 24 25
31 28 26 26 27 26 26 27 27 26 24 21 22 23 23 21 19 16 14 15 15 14 13 11 12 15 16 15 13 13 14 16 14 9 6 7 7 6 6 5 3 5 8 9 6 1 3 4 5 5 5 5 5 5 6 7 8 8 9 9 11 13 13 14 16 17 19 19 20 19 19 20 21 21 21 22 22 23 24 25 26 27 26 25 25
30 30 28 26 26 27 27 28 27 27 25 23 22 23 22 20 19 17 15 15 15 14 14 13 14 16 16 15 14 15 16 16 14 10 8 9 8 8 7 4 4 6 9 9 3 3 5 5 5 5 5 5 5 6 7 8 8 8 9 11 13 13 13 15 17 18 19 19 18 18 19 20 21 21 21 22 23 24 25 26 28 30 27 25 27
30 30 29 27 27 28 28 28 28 27 26 24 24 23 21 20 19 18 15 15 15 14 14 13 14 16 16 17 16 15 17 16 12 9 10 12 10 10 7 4 5 8 11 6 2 6 7 7 6 6 6 6 6 7 7 8 8 9 11 13 14 13 14 16 17 18 18 18 17 18 18 20 20 20 21 23 24 25 27 28 29 30 28 25 25
30 31 29 27 27 29 29 29 28 27 25 24 23 22 21 19 18 17 16 16 16 15 14 14 15 16 17 19 17 16 17 15 11 10 11 12 12 10 5 3 6 10 10 2 6 7 8 8 7 6 6 6 7 7 8 9 9 10 12 14 14 13 14 16 17 17 17 17 17 17 18 20 20 21 22 23 25 26 27 28 28 28 28 26 24
30 31 31 28 28 29 30 29 28 26 24 23 22 21 20 17 16 14 14 15 16 15 14 13 13 13 13 15 17 16 16 14 13 13 13 12 12 8 4 3 7 11 7 4 8 8 9 8 7 6 6 7 7 8 9 10 10 10 12 14 14 13 14 15 15 15 16 16 16 17 19 20 21 22 23 24 26 26 26 26 26 27 27 27 27
31 31 32 30 28 30 30 29 27 25 24 23 22 20 18 16 15 14 13 13 15 14 13 12 11 10 10 12 15 16 16 16 14 13 12 13 11 7 3 4 9 10 2 7 9 10 10 9 8 7 7 7 8 9 10 10 10 11 13 14 14 13 13 14 14 15 16 16 16 18 20 21 21 21 23 24 25 25 25 25 25 26 27 27 28
31 31 32 30 29 30 29 27 26 24 23 22 21 19 18 16 16 16 14 14 14 14 14 13 12 11 12 12 13 15 16 15 14 14 14 12 9 5 3 5 9 7 3 9 11 11 10 9 9 8 8 8 9 10 11 10 9 11 13 13 13 12 12 13 14 15 16 16 17 19 19 20 20 21 22 23 23 24 24 25 25 26 26 27 28
31 29 30 30 31 30 28 27 26 24 22 21 21 21 20 18 17 17 16 15 16 15 14 14 13 13 16 14 12 15 18 17 16 16 13 10 7 5 3 6 9 3 7 10 11 12 11 10 9 8 9 9 9 10 10 9 9 10 12 12 12 11 11 13 14 15 16 16 17 18 19 19 20 21 22 22 22 23 24 24 24 25 25 26 27
30 30 31 32 32 30 29 29 26 24 23 22 23 22 20 18 18 19 18 17 16 15 13 14 16 17 19 16 11 15 19 19 17 14 11 9 7 5 3 7 7 4 10 12 12 12 11 10 9 9 9 9 9 10 10 10 9 10 11 11 11 11 12 13 14 16 16 17 17 17 18 19 19 20 21 21 22 22 22 23 24 24 25 26 27
28 30 34 32 31 32 32 30 28 26 25 23 24 22 19 19 20 21 21 18 17 17 15 16 17 17 17 15 13 15 19 18 16 13 12 10 7 4 5 7 4 7 11 13 13 12 11 11 10 9 9 9 9 9 10 10 10 10 9 10 10 11 12 13 14 16 16 16 16 16 17 18 18 19 20 20 21 21 22 22 23 25 26 27 28
29 31 34 32 32 34 33 31 32 29 26 25 24 22 19 19 22 24 22 17 16 18 18 17 17 15 15 15 16 18 19 17 15 13 11 8 6 5 6 5 5 9 11 13 14 13 12 11 9 9 9 8 8 9 9 10 10 9 9 9 10 11 12 13 14 15 15 15 15 16 17 17 17 18 19 20 20 21 21 22 23 25 26 27 29
32 34 35 33 34 34 33 34 32 27 26 27 25 22 21 21 23 23 19 15 17 19 17 15 15 16 17 18 19 18 17 15 14 12 10 8 7 7 6 5 9 10 12 13 13 13 13 11 10 9 8 8 9 9 9 9 9 9 8 9 10 11 11 13 14 14 14 14 15 16 17 17 17 18 19 19 20 20 21 22 24 26 27 28 29
33 35 35 35 35 33 34 34 29 26 29 29 25 24 23 23 24 21 16 17 18 18 17 16 16 17 18 18 18 16 15 14 13 12 10 10 9 8 6 9 11 11 12 13 13 13 13 12 10 10 8 8 9 9 9 9 9 9 8 9 10 10 11 12 13 13 14 14 15 16 16 17 17 18 18 19 19 20 21 23 24 26 27 29 29
32 34 34 35 36 35 35 33 28 28 31 30 27 25 23 23 23 19 17 19 20 20 20 19 18 18 18 17 16 15 15 14 13 12 12 11 10 9 9 11 12 13 13 13 13 14 14 13 11 10 9 9 8 9 9 9 9 9 9 9 9 10 11 11 12 13 14 14 15 15 16 16 17 17 18 19 19 20 21 23 24 26 27 29 30
34 35 35 35 36 35 34 32 30 29 30 31 30 26 24 25 21 18 19 21 21 21 21 19 18 18 17 17 17 16 16 15 14 13 13 11 11 11 12 13 13 14 14 14 14 13 13 13 12 11 10 9 9 9 9 9 8 8 8 9 9 10 10 11 12 13 13 14 14 14 15 15 15 16 17 18 19 20 21 22 24 25 27 28 29
38 38 37 37 36 35 33 33 34 32 31 31 29 25 28 28 23 20 22 23 22 20 18 18 18 18 18 18 18 17 16 16 15 14 14 14 13 13 13 14 14 14 14 14 14 14 13 13 12 11 11 10 10 9 10 9 8 8 9 9 9 10 11 11 12 13 13 13 13 13 13 13 13 14 15 16 17 18 19 20 22 25 26 27 28
39 38 37 36 36 35 34 34 36 36 35 32 29 29 32 30 24 22 23 23 22 19 17 18 18 17 18 17 16 16 15 15 15 15 15 15 14 14 14 14 15 16 15 15 15 15 14 13 12 11 10 10 10 10 10 10 9 9 9 9 9 9 10 11 12 13 13 13 13 13 13 12 13 14 15 15 15 16 17 18 20 22 24 26 27
38 38 37 37 37 37 36 35 36 37 36 30 28 32 34 30 25 23 22 22 21 19 18 18 17 17 17 15 14 15 16 17 17 17 17 16 15 15 15 15 16 16 16 16 16 15 14 13 12 11 10 10 11 11 11 10 9 10 10 10 9 9 10 11 12 12 13 13 12 13 12 12 13 14 14 15 15 15 16 17 18 19 21 23 24
38 39 38 38 39 39 38 38 37 38 34 27 28 34 33 28 24 21 21 22 21 19 18 17 17 17 16 15 15 17 18 19 19 18 17 16 16 16 15 15 16 17 16 16 16 15 15 14 13 12 11 11 11 12 11 10 10 10 10 10 9 8 9 10 11 11 12 12 12 12 12 12 13 13 14 15 15 15 16 16 17 18 20 21 22
36 37 36 36 39 39 39 38 37 37 34 27 27 32 30 25 22 20 21 23 21 19 17 16 17 17 16 16 17 17 18 19 19 19 18 17 17 17 16 16 17 17 16 16 16 16 15 14 13 12 11 11 12 12 12 11 10 10 10 9 8 7 8 9 10 10 11 11 11 11 12 12 13 13 14 15 16 16 16 17 18 18 20 20 21
33 35 35 35 37 39 39 38 37 36 33 26 26 30 31 28 24 22 23 24 21 19 17 16 17 17 17 17 17 18 19 20 20 19 18 17 17 17 16 17 17 18 17 16 15 15 15 14 13 13 12 12 12 12 12 11 10 10 10 9 8 7 7 8 9 9 10 10 10 10 11 12 12 13 14 15 16 16 17 18 18 19 20 21 22
34 37 38 37 36 37 37 35 34 34 31 27 26 30 33 32 28 24 25 25 22 20 18 17 17 18 18 18 18 19 20 20 20 20 19 19 19 18 17 17 18 20 20 18 16 16 15 14 14 14 13 12 11 12 12 11 11 10 9 9 8 7 7 7 8 8 8 8 9 10 11 12 12 12 13 14 15 16 17 18 19 19 20 21 21
30 34 37 37 35 34 33 31 30 30 30 30 30 30 30 30 29 28 28 27 24 23 21 20 19 18 19 20 20 20 20 20 21 21 20 20 19 19 19 19 20 21 21 19 18 16 15 15 14 14 13 12 12 12 12 12 11 11 10 9 8 7 7 7 7 7 7 7 8 10 11 11 11 11 12 13 14 15 17 17 19 20 20 21 21
30 33 35 35 34 33 32 29 27 27 28 31 31 29 27 28 30 30 30 29 26 25 23 22 20 19 19 20 20 19 19 20 21 20 19 19 20 20 19 19 20 20 18 18 17 16 16 15 15 14 13 12 12 12 12 12 12 11 11 10 8 7 6 6 6 6 6 7 8 9 10 10 10 10 11 12 14 15 16 18 19 20 20 21 22
32 33 34 34 34 32 32 30 28 26 28 30 31 29 28 29 30 31 32 31 29 26 25 23 20 19 20 21 21 20 19 20 20 19 19 20 21 20 19 18 19 17 17 18 17 17 17 16 16 15 14 13 12 12 12 13 13 12 12 11 9 8 7 6 6 5 5 6 7 9 9 9 9 10 11 12 13 14 16 17 19 20 21 22 22
30 32 33 33 33 33 33 33 30 27 27 30 32 32 31 30 30 32 33 32 29 28 26 23 21 20 21 22 21 20 20 21 20 18 20 21 21 20 19 18 18 18 18 17 18 17 17 17 17 16 15 15 14 13 13 13 13 13 12 11 10 8 7 7 6 5 5 5 7 8 8 8 9 9 10 11 12 14 15 17 18 19 21 21 22
28 30 31 32 33 33 32 31 29 28 28 30 33 34 34 32 32 33 33 30 29 28 27 25 23 21 21 22 22 21 21 21 19 18 21 23 21 20 20 18 18 19 18 18 18 18 17 17 17 17 16 16 15 15 14 13 13 13 12 12 11 9 8 7 6 5 5 5 6 7 7 8 8 9 9 10 12 13 15 16 17 19 20 21 22
27 28 29 31 33 32 31 30 29 29 29 30 31 33 34 34 33 33 32 30 30 30 29 26 24 22 22 22 22 21 22 21 19 19 23 23 21 21 20 18 17 18 18 18 18 18 18 18 18 17 17 16 16 15 14 13 13 13 13 12 11 10 9 7 6 6 5 4 5 6 6 7 7 8 9 10 11 13 14 15 16 18 19 20 21
29 29 29 30 31 31 31 30 29 29 29 29 30 31 32 32 32 31 32 32 33 32 30 27 24 23 23 23 22 22 23 22 20 21 24 24 22 21 20 18 17 18 18 19 18 18 19 19 18 18 18 17 16 15 14 14 13 13 13 13 11 10 9 8 7 6 5 4 5 5 5 6 7 7 8 9 10 12 13 14 16 17 18 19 20
28 28 28 29 29 30 30 29 28 27 28 29 30 30 30 29 29 30 31 33 34 32 29 27 25 24 24 23 23 23 24 22 22 23 25 23 21 21 21 20 18 18 19 20 19 19 20 20 19 19 19 18 17 16 15 14 13 13 13 12 11 10 9 8 7 6 5 4 4 4 4 5 6 6 7 9 10 11 12 13 15 16 17 19 20
27 27 27 28 28 28 29 28 27 26 26 27 28 29 28 26 26 28 30 32 33 31 29 28 26 25 24 24 24 25 24 23 23 25 26 24 22 22 22 21 20 19 20 20 21 21 20 20 20 20 19 19 17 16 15 14 14 13 13 12 11 10 9 8 7 6 4 4 4 3 3 4 5 6 7 8 9 10 12 13 14 16 17 18 20
26 27 27 27 27 27 27 26 26 25 24 25 25 25 25 25 25 26 27 30 31 30 30 30 28 26 25 24 25 26 25 24 24 25 25 23 22 22 23 22 21 20 21 21 21 21 21 20 20 20 20 19 18 17 16 15 14 14 13 12 11 10 9 8 7 6 5 4 3 2 2 2 4 5 6 7 9 10 11 13 14 15 17 18 19
26 26 27 27 27 27 26 24 23 22 21 22 23 24 24 25 25 24 25 27 29 30 31 31 29 27 26 25 26 28 27 26 26 26 25 24 22 22 22 23 22 23 23 22 22 22 22 21 21 21 20 19 18 18 17 16 15 14 13 12 12 11 10 9 7 6 5 4 3 2 0 1 3 4 6 7 8 10 11 12 13 14 16 17 18
25 24 25 26 26 25 24 22 21 20 19 20 22 23 23 24 24 24 23 24 26 28 29 30 29 28 26 26 27 28 27 27 27 27 26 26 25 24 23 23 22 23 24 24 23 23 23 22 22 22 21 20 19 18 17 16 15 14 13 13 12 11 10 9 8 7 6 5 4 3 2 2 3 4 6 7 8 9 10 11 12 14 15 16 17
24 24 24 25 24 23 22 21 20 20 20 22 23 24 23 23 23 23 23 23 24 26 28 29 29 27 26 26 28 29 27 26 27 28 27 26 25 23 22 21 20 20 21 22 21 22 22 21 21 21 21 20 19 17 16 14 14 14 13 12 12 11 10 9 8 7 7 6 4 4 3 3 4 4 5 6 7 8 8 10 11 12 14 15 17
23 24 24 23 21 20 20 20 19 18 18 20 22 24 24 23 23 23 22 22 24 26 27 28 28 27 27 27 29 30 27 24 25 27 26 24 23 21 20 19 19 18 19 19 19 19 19 19 19 19 18 17 15 13 14 14 14 14 13 12 12 12 10 10 9 8 7 6 5 5 5 5 5 5 5 6 6 7 8 9 11 12 14 15 16
22 22 22 21 20 19 19 18 17 16 16 17 19 20 21 22 22 22 22 22 24 25 26 27 28 28 27 28 29 30 27 24 25 27 25 23 23 23 21 20 19 18 19 19 18 18 17 17 17 17 16 15 14 14 15 15 14 13 13 12 12 12 11 10 9 8 7 6 6 6 6 6 6 6 6 6 7 7 9 10 11 12 14 15 16
Wind_Direction
219 224 225 224 224 225 222 220 219 215 214 216 216 219 220 218 217 215 213 217 221 216 208 201 194 193 197 202 206 209 211 213 212 209 211 217 217 211 206 211 215 214 223 224 221 230 267 283 283 291 299 308 310 313 318 322 327 331 334 333 334 336 337 340 339 341 341 323 306 294 284 276 271 272 287 318 332 335 338 335 332 336 337 336 335
220 225 226 224 227 228 224 219 219 217 216 217 216 217 219 218 216 215 214 217 219 217 211 200 194 196 201 206 209 213 216 218 220 220 219 223 222 209 198 196 201 201 205 202 192 195 214 255 289 307 310 311 313 319 324 327 331 335 337 337 337 337 338 341 342 348 355 348 332 250 236 263 272 279 302 319 333 343 345 341 339 341 342 343 342
222 226 224 221 226 230 226 219 219 218 218 219 216 216 218 217 215 214 214 217 218 213 202 193 193 200 206 210 215 219 222 225 224 222 223 229 225 207 191 186 191 192 187 179 173 187 201 238 289 310 312 314 319 323 324 327 333 338 340 340 340 341 341 343 349 359 4 7 23 178 201 201 211 309 329 327 345 357 346 344 347 351 354 355 355
222 223 221 219 221 226 224 218 217 218 220 221 219 216 214 213 214 215 214 215 214 204 194 193 197 205 211 215 222 225 230 236 230 224 228 229 213 196 187 174 174 175 169 167 176 196 205 219 274 311 316 318 319 320 324 332 340 343 346 347 345 345 344 349 1 9 12 19 30 37 92 109 135 356 350 346 360 3 353 357 2 5 8 7 4
222 221 219 218 215 213 216 216 214 217 221 223 221 218 212 211 216 217 214 210 206 199 194 196 202 207 209 211 218 221 229 236 231 238 245 231 211 196 178 165 168 174 177 181 190 194 196 220 308 319 316 316 316 322 334 343 349 351 353 354 354 353 357 9 14 17 24 30 34 43 60 80 49 11 38 32 1 8 12 7 10 16 17 13 11
224 222 217 216 213 205 207 214 215 216 221 222 220 221 220 217 217 216 211 205 203 200 199 202 206 209 207 208 214 216 221 227 227 242 242 228 226 207 178 173 179 186 191 193 196 205 229 304 324 317 310 311 317 333 348 355 357 359 1 2 6 9 14 21 20 22 31 34 38 52 60 60 38 31 53 64 14 30 28 15 16 25 26 20 19
221 222 219 219 218 211 206 211 217 216 217 219 217 222 225 221 218 216 209 205 205 205 207 211 212 213 211 212 220 221 222 223 221 227 221 218 232 216 192 185 181 183 195 204 234 271 303 319 318 311 307 312 327 352 6 10 10 10 10 13 20 22 25 28 25 27 33 36 41 50 53 54 52 44 50 57 47 42 26 21 23 31 36 32 28
215 217 221 225 224 222 214 210 217 215 213 215 216 221 224 220 221 218 210 208 209 210 216 219 218 218 213 212 223 228 227 224 215 207 207 217 229 215 201 192 184 188 199 279 312 314 321 323 317 309 309 321 355 22 28 26 21 19 18 25 29 29 34 35 35 38 40 42 46 49 49 51 52 49 52 52 50 49 25 22 24 27 33 36 34
216 217 220 223 226 226 218 212 217 215 212 215 215 219 221 220 220 217 213 209 208 214 220 222 222 221 215 216 225 223 217 217 211 203 207 221 227 217 209 204 201 210 264 320 319 323 323 319 313 307 314 1 40 45 42 32 28 29 30 37 38 38 45 47 49 52 52 53 52 52 51 52 52 48 49 46 45 48 34 24 25 24 24 28 31
215 218 220 222 225 222 212 212 218 215 213 214 212 215 219 219 217 215 213 209 209 218 222 221 223 222 220 228 231 218 205 205 205 203 211 221 227 224 220 217 217 236 304 313 315 317 316 312 309 310 3 54 60 53 45 37 36 40 41 45 48 51 58 61 63 63 63 63 62 63 61 58 54 47 46 43 40 41 35 27 26 27 26 24 25
208 212 215 219 221 217 210 213 218 215 210 209 209 212 214 215 214 213 214 213 214 221 222 222 226 229 231 234 228 216 210 207 206 208 214 221 226 224 221 221 229 260 294 308 312 312 312 311 312 9 71 73 68 56 50 47 47 48 47 51 57 61 66 67 70 72 72 73 70 68 63 57 53 48 44 41 39 37 34 30 25 25 28 26 23
202 201 206 211 212 211 213 216 218 214 206 203 208 212 212 213 213 213 214 211 213 221 223 226 233 235 233 226 210 209 222 218 212 215 221 225 224 219 218 223 247 283 304 310 310 312 316 319 38 91 87 80 70 60 56 56 54 52 52 56 61 66 70 71 74 76 74 70 65 60 56 52 49 47 42 39 38 35 33 31 28 26 29 29 25
205 201 204 211 211 208 210 214 214 212 209 208 211 213 213 215 216 216 214 209 211 222 227 229 232 229 220 210 202 208 219 214 211 217 228 231 221 215 224 242 265 292 310 313 313 318 327 75 107 101 93 80 72 66 63 61 58 55 56 61 68 72 75 76 75 72 67 62 58 54 51 49 46 44 40 37 36 35 33 31 29 29 32 32 29
212 209 206 209 211 209 209 210 210 211 211 209 211 213 213 217 220 219 215 212 216 223 225 217 215 216 209 201 200 206 210 207 207 214 228 227 216 217 234 244 263 292 309 317 322 328 42 122 113 104 97 85 78 73 68 65 61 60 64 72 77 78 78 76 69 65 61 57 54 51 48 47 45 42 38 36 35 33 33 33 31 30 30 29 29
211 211 207 206 208 210 210 209 209 211 210 206 208 213 215 217 221 220 214 214 220 221 218 210 205 206 202 194 197 203 203 202 201 208 224 218 217 225 221 221 257 292 312 323 328 322 142 129 123 115 105 96 88 80 73 70 68 70 79 84 83 80 77 72 67 63 59 55 52 49 47 46 44 41 38 37 37 36 36 36 35 34 29 25 26
209 209 209 208 207 208 207 205 206 209 210 209 211 214 216 216 217 217 214 215 221 218 214 210 204 204 196 185 190 196 195 198 200 205 211 207 213 217 208 226 282 302 321 325 315 165 149 136 134 129 118 108 98 87 79 77 79 84 89 88 83 80 76 70 66 62 58 54 51 48 46 46 45 42 41 39 39 39 39 37 36 36 32 24 21
205 206 206 205 203 203 203 203 205 207 208 211 213 214 217 218 215 212 210 213 217 215 210 202 198 205 195 177 180 192 195 197 199 204 207 206 209 206 207 261 292 309 323 317 194 161 152 144 142 137 126 113 99 92 88 87 89 93 93 88 82 79 75 70 66 62 58 54 50 48 47 47 47 44 43 43 41 40 39 37 36 35 33 26 19
202 202 202 202 200 201 203 204 207 208 208 209 212 214 214 217 216 211 208 210 213 212 208 198 195 200 192 174 173 186 193 195 201 207 207 208 208 202 210 270 298 315 320 277 167 160 152 146 146 140 128 114 102 96 95 93 94 95 93 88 83 77 71 69 66 61 58 54 50 50 49 49 48 46 45 44 44 42 40 38 34 32 30 27 19
198 197 199 201 199 200 203 205 207 209 209 208 210 213 209 209 214 212 208 209 214 215 206 197 192 191 186 176 174 181 189 196 204 205 203 205 205 200 217 279 306 319 316 176 163 160 152 146 147 141 125 114 108 102 98 96 98 97 92 88 83 76 69 68 66 62 60 57 52 51 51 50 48 46 47 46 45 43 41 38 33 30 26 23 19
192 189 194 198 199 201 202 203 204 206 208 208 211 214 209 203 206 209 210 210 209 206 197 192 189 183 179 179 178 183 190 194 200 206 209 207 198 192 228 285 309 320 290 169 161 155 150 147 146 139 124 117 113 106 99 99 102 97 90 87 82 75 69 67 66 64 62 58 53 51 51 51 49 48 48 47 45 43 40 37 33 29 24 18 16
187 184 188 193 195 198 200 203 205 205 207 207 207 207 201 200 206 209 209 204 193 188 189 191 188 183 182 182 185 190 194 198 205 208 206 197 189 197 248 293 311 313 188 166 158 152 152 151 146 138 129 122 114 106 102 102 103 96 91 88 83 78 72 69 68 66 63 58 54 53 53 53 51 50 50 48 45 42 38 36 31 27 23 15 11
185 182 186 190 192 193 195 197 198 200 201 201 199 196 194 201 210 208 202 195 186 184 190 193 191 190 190 189 194 199 201 203 202 199 194 193 202 221 248 301 309 280 168 163 159 155 153 151 147 141 132 123 114 107 105 105 104 97 94 90 86 81 75 72 70 66 62 58 55 54 55 54 52 51 49 47 44 41 37 34 29 26 22 16 10
184 182 187 193 195 196 196 195 197 199 196 195 193 191 194 204 208 203 197 195 193 193 194 193 194 194 191 191 200 204 204 201 198 199 201 202 210 213 250 300 300 193 165 163 159 156 154 151 149 142 131 123 117 112 110 111 108 101 96 92 89 84 77 73 69 65 63 59 57 57 57 56 54 52 49 46 43 40 36 32 28 25 21 18 13
181 184 191 195 196 196 196 198 200 197 193 193 192 190 198 206 206 201 196 197 199 196 190 188 191 193 194 200 209 208 204 200 197 200 199 196 199 213 267 288 260 174 170 165 158 157 155 151 149 141 132 125 119 118 118 118 114 107 101 96 91 86 78 73 69 66 64 61 60 61 60 58 56 54 50 46 41 37 34 30 26 24 21 17 15
176 182 188 192 192 192 195 197 193 190 193 196 193 194 204 206 201 194 187 188 194 191 187 191 196 200 202 205 207 204 200 195 193 192 192 194 205 235 266 262 190 176 176 165 157 157 154 151 150 143 135 130 125 123 124 124 120 114 108 100 92 84 78 75 71 68 65 64 65 64 62 60 58 55 50 45 40 35 32 29 25 23 20 17 15
176 179 183 187 189 189 190 190 187 189 194 196 195 199 202 199 192 185 182 188 191 189 191 197 200 203 205 203 201 198 193 192 192 193 197 209 225 245 248 199 174 178 175 163 156 156 154 153 152 147 142 138 131 128 129 129 126 121 112 100 90 83 79 76 72 69 66 65 67 65 61 59 56 53 50 45 40 35 30 28 24 21 19 17 15
177 180 182 185 187 189 190 190 193 197 193 192 197 197 194 192 184 178 185 193 191 189 194 199 199 202 204 200 196 195 194 194 195 198 210 226 233 229 201 174 173 174 169 163 159 158 156 155 156 154 149 144 135 132 136 136 131 123 111 98 89 85 82 77 73 70 67 66 66 62 58 56 53 50 47 43 39 34 29 26 22 20 18 16 14
178 181 182 183 186 190 192 193 199 201 192 190 192 189 189 189 182 180 189 193 193 194 195 197 199 201 202 200 197 198 200 200 202 210 220 224 215 195 177 175 176 169 164 163 161 160 158 158 161 159 151 146 138 137 141 140 133 123 109 97 92 90 85 80 75 70 68 67 65 61 57 53 50 46 43 40 36 32 28 23 20 18 17 15 14
180 183 185 187 189 191 193 193 195 196 195 191 184 182 189 192 189 192 194 193 195 196 195 199 202 202 203 204 203 204 206 208 211 214 210 201 189 181 178 178 175 166 163 164 163 163 162 162 164 162 155 148 142 143 143 139 131 119 108 101 100 98 91 84 79 73 70 68 66 63 59 55 51 48 45 40 35 30 26 21 17 16 15 14 13
179 183 187 190 192 195 197 195 191 191 195 193 188 191 196 195 195 196 194 194 198 199 202 208 207 205 205 206 209 212 211 210 207 201 192 184 181 181 179 177 174 168 165 165 165 165 166 167 167 165 159 151 148 150 146 138 129 116 109 107 106 102 95 89 84 78 73 71 69 66 63 60 56 52 49 44 38 31 26 21 16 13 12 11 11
180 184 188 190 193 196 197 196 194 193 193 193 198 202 195 189 189 192 194 200 203 204 210 212 209 207 207 209 212 209 202 195 190 186 183 181 179 179 177 176 174 169 165 166 167 166 168 170 171 168 161 155 153 152 147 139 129 120 115 114 110 101 94 90 84 79 76 73 72 71 68 64 60 56 52 46 40 34 28 23 17 14 11 9 9
180 185 190 193 195 196 196 197 196 194 191 190 197 197 189 184 187 192 199 204 205 208 212 211 212 211 209 208 201 189 183 181 181 182 181 179 177 175 174 173 172 169 167 167 167 168 170 171 172 171 166 161 158 153 146 140 132 128 123 118 111 101 93 88 82 79 77 73 72 72 69 64 58 54 50 46 41 35 29 24 18 16 14 11 9
183 187 193 197 197 196 197 196 194 194 195 197 199 194 187 185 189 195 203 205 205 209 210 209 211 210 208 202 188 179 178 177 178 180 179 176 175 174 170 170 170 168 167 168 169 170 172 172 171 173 172 167 161 155 149 145 140 134 128 122 115 104 94 88 84 81 77 73 72 72 69 64 57 52 47 43 41 37 32 27 22 20 18 15 13
186 190 193 196 197 197 198 197 198 199 200 201 200 196 192 191 196 204 210 208 206 207 208 208 209 207 202 194 184 180 180 179 179 180 177 176 176 174 170 167 167 167 167 168 171 172 173 174 172 175 179 172 163 159 155 151 147 141 134 129 123 112 99 92 87 83 77 73 72 72 70 63 55 50 45 42 41 39 34 30 26 23 21 17 15
188 191 192 193 196 198 199 199 201 200 196 193 196 200 200 197 198 207 211 209 208 209 209 211 211 206 198 191 186 185 184 182 180 177 176 177 177 176 174 170 169 170 168 169 176 177 175 175 176 179 182 175 166 164 162 156 151 148 144 139 133 122 107 98 91 84 78 74 72 73 71 63 54 47 43 41 39 37 35 31 27 25 22 20 17
191 194 195 196 198 200 200 199 199 197 195 193 197 202 202 197 197 206 210 208 210 213 215 217 215 207 198 191 188 188 187 185 180 176 176 178 178 182 186 183 179 175 170 170 179 181 177 177 180 182 182 178 172 170 168 162 157 156 154 149 143 133 117 106 98 87 80 75 74 74 70 62 56 48 42 40 37 34 33 30 27 25 22 21 20
191 194 197 200 201 202 203 203 201 201 202 202 200 200 202 204 206 208 207 206 209 213 215 217 215 206 196 191 190 191 191 187 182 180 181 182 184 189 192 189 183 177 171 172 178 180 178 181 185 183 181 181 179 176 174 169 165 163 162 159 153 143 129 117 105 92 84 80 78 75 69 62 57 49 43 39 34 31 30 27 25 24 21 19 20
193 194 197 201 203 204 205 205 202 201 202 202 200 198 203 212 214 209 205 207 210 212 213 214 212 203 195 193 192 191 191 189 186 186 190 190 189 188 186 182 179 175 172 174 177 178 179 182 184 183 181 182 182 181 180 177 172 170 168 166 164 156 142 127 113 100 90 85 81 74 66 62 56 48 43 38 32 28 26 24 23 22 19 17 16
198 198 199 201 203 203 202 201 199 198 199 199 199 200 207 214 215 210 209 211 212 212 214 215 210 201 196 195 192 189 190 192 193 193 193 190 185 181 178 174 172 173 176 177 178 179 181 182 182 181 182 182 183 185 186 183 177 174 173 172 171 166 154 138 123 109 97 87 81 73 65 61 55 46 40 36 31 28 25 23 22 19 17 16 13
196 199 200 201 201 200 199 199 200 200 201 201 202 205 209 213 214 213 215 217 217 217 216 213 207 200 198 197 195 193 195 199 199 195 188 184 181 178 174 171 171 175 179 180 179 181 184 184 182 181 183 184 185 187 189 186 179 176 176 175 174 171 161 146 133 122 108 89 79 73 65 59 52 44 37 33 31 28 26 23 20 18 16 14 12
195 197 199 200 201 201 201 201 202 203 204 205 207 209 210 212 214 215 217 219 220 219 215 210 204 201 200 199 198 199 200 202 203 196 185 181 181 178 174 174 176 177 178 180 182 184 186 188 187 185 186 189 189 189 189 185 180 177 177 176 175 172 163 152 143 132 117 96 83 76 68 59 51 41 34 31 30 29 26 22 18 15 14 12 10
198 198 199 199 200 202 203 203 203 205 207 207 209 211 212 214 217 218 219 220 220 218 214 208 203 201 200 200 201 202 201 201 204 199 188 182 180 179 176 177 180 179 178 180 184 187 188 190 192 191 192 194 195 191 187 185 182 179 178 178 175 171 164 156 149 138 124 108 95 83 70 60 51 40 31 28 28 27 23 18 14 12 11 10 8
197 198 200 201 200 201 203 205 205 207 209 210 210 212 214 219 221 220 220 222 221 217 212 207 203 201 200 200 202 202 200 200 204 199 191 185 181 179 179 181 183 183 183 183 186 190 191 192 195 195 196 197 198 194 188 185 184 182 181 178 174 171 165 159 152 145 136 123 105 89 73 59 48 38 29 25 25 24 19 14 10 8 7 6 6
197 198 199 201 202 201 202 205 205 207 211 213 214 214 216 222 224 222 222 223 219 213 209 207 205 202 200 200 202 200 199 201 203 198 191 188 185 182 183 186 187 187 188 188 188 191 194 195 196 198 200 199 197 195 191 187 186 186 184 179 175 172 168 163 157 153 149 134 114 96 74 55 44 35 26 21 20 18 13 9 6 4 4 4 4
198 199 199 201 203 202 203 204 205 207 211 214 217 219 221 225 228 227 228 226 218 211 208 209 207 204 202 201 200 200 200 202 202 197 191 189 188 187 189 191 191 192 193 193 192 193 196 198 198 200 202 201 198 195 192 189 189 188 185 181 177 175 172 168 163 161 160 144 122 99 69 47 37 28 20 15 13 11 8 5 3 2 3 2 3
199 198 198 200 202 203 204 204 203 206 211 215 220 224 226 229 231 230 231 228 219 211 210 210 207 204 203 202 201 200 201 203 203 199 195 193 192 193 195 195 195 196 197 197 196 196 197 200 201 202 203 202 199 196 193 191 191 190 187 184 182 179 176 173 170 170 169 157 140 118 64 33 20 12 7 5 5 4 3 2 0 0 1 1 1
200 199 198 198 199 202 203 203 202 205 211 217 223 227 229 231 232 231 232 228 219 212 211 210 207 204 203 203 203 201 201 203 204 201 198 196 198 201 203 202 201 201 200 199 199 199 200 202 203 203 203 203 201 197 195 193 193 191 189 186 186 185 181 178 179 181 179 174 169 163 63 360 350 348 346 350 354 355 356 357 356 355 357 359 359
202 202 200 199 201 202 202 202 202 205 210 215 222 226 228 231 232 231 231 227 220 215 213 210 208 205 204 204 205 204 203 204 204 201 197 196 200 205 209 210 208 207 204 201 198 198 201 204 205 204 204 204 202 200 198 196 195 194 192 190 191 190 188 187 189 191 193 193 194 203 241 284 305 321 329 335 342 345 347 349 349 349 351 353 355
202 202 202 204 204 204 204 204 203 205 210 215 220 222 223 228 231 231 228 225 220 216 213 210 208 207 207 207 206 206 207 208 207 203 199 197 201 207 214 217 218 216 213 210 204 202 203 205 206 208 208 206 206 204 199 197 197 196 194 194 195 196 196 197 200 203 206 209 214 225 242 259 275 295 310 321 328 334 339 343 344 345 345 346 348
199 199 201 205 206 207 208 206 203 203 207 214 221 223 223 226 230 229 227 225 221 216 212 210 210 210 209 208 206 206 208 211 210 204 199 197 202 210 217 223 223 221 220 218 213 209 209 206 207 211 213 208 204 202 199 199 200 199 198 199 200 202 204 206 210 214 216 221 227 234 243 253 264 277 294 307 316 325 335 340 343 346 347 346 345
195 196 198 201 204 207 208 206 202 200 202 210 218 222 223 227 231 231 229 226 222 218 214 211 210 211 210 209 208 207 207 209 208 205 200 198 202 209 214 218 218 218 219 219 213 207 205 206 210 213 210 202 197 197 200 202 203 203 204 205 206 209 210 212 216 218 221 227 234 239 247 258 266 274 285 297 309 323 334 339 343 348 352 352 350